Simultaneous Nadir Overpasses (SNOs) Predictions

Prediction of SNOs between GOES-14 and AQUA Satellite Orbit:

Table of predicted SNOs for the next 14.0 days since TLE Epoch: 10/2/2020
Index Date Time (GOES-14) GOES-14 Lat,Lon AQUA Lat,Lon Distance(km) Time Diff (sec)
1 10/04/2020 20:32:44 -0.26,-104.38 -0.18,-103.93 50.37 80
2 10/06/2020 20:20:32 -0.26,-104.37 0.46,-100.98 386.25 80
3 10/07/2020 08:41:48 0.24,-104.40 0.60,-106.14 197.91 80
4 10/09/2020 08:26:56 0.24,-104.38 -0.04,-103.19 136.77 80
5 10/09/2020 20:48:20 -0.22,-104.33 -1.06,-108.38 459.86 80
6 10/11/2020 08:14:43 0.24,-104.37 -0.61,-100.22 471.33 80
7 10/11/2020 20:36:08 -0.22,-104.32 -0.42,-105.42 124.67 80
8 10/13/2020 20:26:35 -0.21,-104.31 0.17,-102.46 210.50 80
9 10/14/2020 08:47:51 0.19,-104.38 0.90,-107.62 369.04 80
10 10/16/2020 08:35:39 0.19,-104.37 0.25,-104.67 34.06 80
